Location: Isle of Man Observatory
(54.1776°N, 4.6264°W)
Time: 05:19:39
(UTC+01:00)

N. Korean satellite - Visible Passes

Search period start: 15 November 2018 00:00
Search period end: 25 November 2018 00:00
Orbit: 457 x 511 km, 97.2° (Epoch: 14 November)

Date Brightness Start Highest point End Pass type
(mag) Time Alt. Az. Time Alt. Az. Time Alt. Az.
15 Nov 10.2 06:29:08 10° ENE 06:29:56 11° E 06:30:45 10° E visible
15 Nov 6.4 08:00:27 10° NNE 08:03:57 81° WNW 08:07:23 10° SSW visible
15 Nov 6.7 18:42:21 10° S 18:45:58 77° WSW 18:49:33 10° NNW visible
16 Nov 7.4 07:36:00 10° NNE 07:39:24 53° E 07:42:47 10° S visible
16 Nov 6.6 18:17:56 10° SSE 18:21:29 58° ENE 18:25:00 10° N visible
16 Nov 9.8 19:53:05 10° SW 19:55:17 15° W 19:57:29 10° NW visible
17 Nov 8.7 07:11:43 10° NNE 07:14:48 29° E 07:17:50 10° SSE visible
17 Nov 7.2 17:53:49 10° SE 17:57:04 33° ENE 18:00:17 10° N visible
17 Nov 8.9 19:27:31 10° SSW 19:30:34 26° W 19:33:37 10° NW visible
18 Nov 9.7 06:47:47 10° NE 06:50:06 17° E 06:52:24 10° SE visible
18 Nov 7.7 19:02:29 10° S 19:05:57 45° W 19:09:24 10° NNW visible
19 Nov 6.4 07:55:53 10° NNE 07:59:22 90° SW 08:02:48 10° SSW visible
19 Nov 6.6 18:37:48 10° SSE 18:41:24 85° WSW 18:44:57 10° NNW visible
20 Nov 7.6 07:31:27 10° NNE 07:34:48 47° E 07:38:08 10° S visible
20 Nov 6.6 18:13:26 10° SSE 18:16:55 52° ENE 18:20:22 10° N visible
20 Nov 9.7 19:48:19 10° SW 19:50:40 17° W 19:53:01 10° NW visible
21 Nov 8.9 07:07:12 10° NE 07:10:10 26° E 07:13:07 10° SSE visible
21 Nov 7.3 17:49:22 10° SE 17:52:30 29° ENE 17:55:36 10° N visible
21 Nov 8.7 19:22:51 10° SSW 19:25:57 28° W 19:29:04 10° NW visible
22 Nov 9.8 06:43:20 10° NE 06:45:26 15° E 06:47:32 10° SE visible
22 Nov 6.6 08:15:51 10° N 08:19:15 53° WNW 08:22:35 10° SSW visible
22 Nov 7.5 18:57:52 10° S 19:01:20 50° W 19:04:47 10° NNW visible
23 Nov 6.6 07:51:16 10° NNE 07:54:44 81° ESE 07:58:11 10° SSW visible
23 Nov 6.4 18:33:14 10° SSE 18:36:47 86° ENE 18:40:18 10° NNW visible
23 Nov 10.2 20:10:08 10° W 20:10:47 10° W 20:11:25 10° WNW visible
24 Nov 7.8 07:26:50 10° NNE 07:30:09 42° E 07:33:27 10° S visible
24 Nov 6.7 18:08:54 10° SE 18:12:18 46° ENE 18:15:40 10° N visible
24 Nov 9.5 19:43:31 10° SW 19:46:00 18° W 19:48:29 10° NW visible
